{"data":{"norad_id":63984,"epoch":"2026-05-25T03:46:27.840288Z","epoch_age_seconds":51693,"freshness":"FRESH","line1":"1 63984U 25100C   26145.15726667  .00009272  00000+0  42886-3 0  9996","line2":"2 63984  97.3669 218.4517 0032216  83.6011 276.8891 15.19891286 57129","mean_motion":15.19891286,"eccentricity":0.0032216,"inclination_deg":97.3669,"raan_deg":218.4517,"arg_perigee_deg":83.6011,"mean_anomaly_deg":276.8891,"bstar":0.00042886,"rev_number":5712,"period_min":94.743618393243,"perigee_km":483.99039243103,"apogee_km":528.34735202697,"semimajor_km":6884.305872229,"source":"CELESTRAK","updated_at":"2026-05-25T13:38:04.127490Z"}}